Time,TemperatureF,DewpointF,PressureIn,WindDirection,WindDirectionDegrees,WindSpeedMPH,WindSpeedGustMPH,Humidity,HourlyPrecipIn,Conditions,Clouds,dailyrainin,SolarRadiationWatts/m^2,SoftwareType,DateUTC
2013-01-25 00:02:00,5.0,0.0,-100.00,SSE,148,3.0,9.0,80,0.02,,,0.03,0.000000,,2013-01-25 06:02:00,
2013-01-25 00:10:00,5.0,0.0,-100.00,SSE,163,4.0,11.0,79,0.01,,,0.04,0.000000,,2013-01-25 06:10:00,
2013-01-25 00:32:00,5.0,0.0,-100.00,SSE,163,4.0,11.0,79,0.01,,,0.04,0.000000,,2013-01-25 06:32:00,
2013-01-25 00:42:00,5.0,0.0,-100.00,SSE,163,4.0,11.0,79,0.01,,,0.04,0.000000,,2013-01-25 06:42:00,
2013-01-25 00:52:00,5.0,0.0,-100.00,SSE,163,4.0,11.0,79,0.01,,,0.04,0.000000,,2013-01-25 06:52:00,
2013-01-25 01:02:00,5.0,0.0,-100.00,SSE,163,4.0,11.0,79,0.01,,,0.04,0.000000,,2013-01-25 07:02:00,
2013-01-25 01:10:00,6.0,1.0,-100.00,SSE,168,5.0,11.0,78,0.00,,,0.04,0.000000,,2013-01-25 07:10:00,
2013-01-25 01:32:00,6.0,1.0,-100.00,SSE,168,5.0,11.0,78,0.00,,,0.04,0.000000,,2013-01-25 07:32:00,
2013-01-25 01:42:00,6.0,1.0,-100.00,SSE,168,5.0,11.0,78,0.00,,,0.04,0.000000,,2013-01-25 07:42:00,
2013-01-25 01:52:00,6.0,1.0,-100.00,SSE,168,5.0,11.0,78,0.00,,,0.04,0.000000,,2013-01-25 07:52:00,
2013-01-25 02:02:00,6.0,1.0,-100.00,SSE,168,5.0,11.0,78,0.00,,,0.04,0.000000,,2013-01-25 08:02:00,
2013-01-25 02:10:00,7.0,1.0,-100.00,South,180,4.0,11.0,75,0.00,,,0.04,0.000000,,2013-01-25 08:10:00,
2013-01-25 02:32:00,7.0,1.0,-100.00,South,180,4.0,11.0,75,0.00,,,0.04,0.000000,,2013-01-25 08:32:00,
2013-01-25 02:42:00,7.0,1.0,-100.00,South,180,4.0,11.0,75,0.00,,,0.04,0.000000,,2013-01-25 08:42:00,
2013-01-25 02:52:00,7.0,1.0,-100.00,South,180,4.0,11.0,75,0.00,,,0.04,0.000000,,2013-01-25 08:52:00,
2013-01-25 03:02:00,7.0,1.0,-100.00,South,180,4.0,11.0,75,0.00,,,0.04,0.000000,,2013-01-25 09:02:00,
2013-01-25 03:10:00,8.0,3.0,-100.00,SSE,168,4.0,13.0,81,0.00,,,0.04,0.000000,,2013-01-25 09:10:00,
2013-01-25 03:32:00,8.0,3.0,-100.00,SSE,168,4.0,13.0,81,0.00,,,0.04,0.000000,,2013-01-25 09:32:00,
2013-01-25 03:42:00,8.0,3.0,-100.00,SSE,168,4.0,13.0,81,0.00,,,0.04,0.000000,,2013-01-25 09:42:00,
2013-01-25 03:52:00,8.0,3.0,-100.00,SSE,168,4.0,13.0,81,0.00,,,0.04,0.000000,,2013-01-25 09:52:00,
2013-01-25 04:02:00,8.0,3.0,-100.00,SSE,168,4.0,13.0,81,0.00,,,0.04,0.000000,,2013-01-25 10:02:00,
2013-01-25 04:10:00,8.0,4.0,-100.00,South,171,4.0,11.0,83,0.01,,,0.05,0.000000,,2013-01-25 10:10:00,
2013-01-25 04:42:00,8.0,4.0,-100.00,South,171,4.0,11.0,83,0.01,,,0.05,0.000000,,2013-01-25 10:42:00,
2013-01-25 04:52:00,8.0,4.0,-100.00,South,171,4.0,11.0,83,0.01,,,0.05,0.000000,,2013-01-25 10:52:00,
2013-01-25 05:02:00,8.0,4.0,-100.00,South,171,4.0,11.0,83,0.01,,,0.05,0.000000,,2013-01-25 11:02:00,
2013-01-25 05:10:00,9.0,5.0,-100.00,South,186,6.0,12.0,83,0.01,,,0.06,0.000000,,2013-01-25 11:10:00,
2013-01-25 05:33:00,9.0,5.0,-100.00,South,186,6.0,12.0,83,0.01,,,0.06,0.000000,,2013-01-25 11:33:00,
2013-01-25 05:42:00,9.0,5.0,-100.00,South,186,6.0,12.0,83,0.01,,,0.06,0.000000,,2013-01-25 11:42:00,
2013-01-25 05:52:00,9.0,5.0,-100.00,South,186,6.0,12.0,83,0.01,,,0.06,0.000000,,2013-01-25 11:52:00,
2013-01-25 06:02:00,9.0,5.0,-100.00,South,186,6.0,12.0,83,0.01,,,0.06,0.000000,,2013-01-25 12:02:00,
2013-01-25 06:10:00,9.0,5.0,-100.00,South,176,6.0,15.0,82,0.00,,,0.06,0.000000,,2013-01-25 12:10:00,
2013-01-25 06:33:00,9.0,5.0,-100.00,South,176,6.0,15.0,82,0.00,,,0.06,0.000000,,2013-01-25 12:33:00,
2013-01-25 06:42:00,9.0,5.0,-100.00,South,176,6.0,15.0,82,0.00,,,0.06,0.000000,,2013-01-25 12:42:00,
2013-01-25 06:53:00,9.0,5.0,-100.00,South,176,6.0,15.0,82,0.00,,,0.06,0.000000,,2013-01-25 12:53:00,
2013-01-25 07:02:00,9.0,5.0,-100.00,South,176,6.0,15.0,82,0.00,,,0.06,0.000000,,2013-01-25 13:02:00,
2013-01-25 07:10:00,9.0,5.0,-100.00,SSE,168,4.0,13.0,83,0.00,,,-99.99,0.000000,,2013-01-25 13:10:00,
2013-01-25 07:33:00,9.0,5.0,-100.00,SSE,168,4.0,13.0,83,0.00,,,-99.99,0.000000,,2013-01-25 13:33:00,
2013-01-25 07:43:00,9.0,5.0,-100.00,SSE,168,4.0,13.0,83,0.00,,,-99.99,0.000000,,2013-01-25 13:43:00,
2013-01-25 07:53:00,9.0,5.0,-100.00,SSE,168,4.0,13.0,83,0.00,,,-99.99,0.000000,,2013-01-25 13:53:00,
2013-01-25 08:03:00,9.0,5.0,-100.00,SSE,168,4.0,13.0,83,0.00,,,-99.99,0.000000,,2013-01-25 14:03:00,
2013-01-25 08:10:00,10.0,6.0,-100.00,South,179,5.0,9.0,83,0.00,,,0.06,2.000000,,2013-01-25 14:10:00,
2013-01-25 08:33:00,10.0,6.0,-100.00,South,179,5.0,9.0,83,0.00,,,0.06,2.000000,,2013-01-25 14:33:00,
2013-01-25 08:42:00,10.0,6.0,-100.00,South,179,5.0,9.0,83,0.00,,,0.06,2.000000,,2013-01-25 14:42:00,
2013-01-25 08:53:00,10.0,6.0,-100.00,South,179,5.0,9.0,83,0.00,,,0.06,2.000000,,2013-01-25 14:53:00,
2013-01-25 09:02:00,10.0,6.0,-100.00,South,179,5.0,9.0,83,0.00,,,0.06,2.000000,,2013-01-25 15:02:00,
2013-01-25 09:10:00,11.0,7.0,-100.00,SSE,165,3.0,9.0,82,0.01,,,0.07,13.000000,,2013-01-25 15:10:00,
2013-01-25 09:33:00,11.0,7.0,-100.00,SSE,165,3.0,9.0,82,0.01,,,0.07,13.000000,,2013-01-25 15:33:00,
2013-01-25 09:43:00,11.0,7.0,-100.00,SSE,165,3.0,9.0,82,0.01,,,0.07,13.000000,,2013-01-25 15:43:00,
2013-01-25 09:53:00,11.0,7.0,-100.00,SSE,165,3.0,9.0,82,0.01,,,0.07,13.000000,,2013-01-25 15:53:00,
2013-01-25 10:03:00,11.0,7.0,-100.00,SSE,165,3.0,9.0,82,0.01,,,0.07,13.000000,,2013-01-25 16:03:00,
2013-01-25 10:10:00,13.0,8.0,-100.00,South,176,2.0,7.0,81,0.01,,,0.08,23.000000,,2013-01-25 16:10:00,
2013-01-25 10:43:00,13.0,8.0,-100.00,South,176,2.0,7.0,81,0.01,,,0.08,23.000000,,2013-01-25 16:43:00,
2013-01-25 10:53:00,13.0,8.0,-100.00,South,176,2.0,7.0,81,0.01,,,0.08,23.000000,,2013-01-25 16:53:00,
2013-01-25 11:02:00,13.0,8.0,-100.00,South,176,2.0,7.0,81,0.01,,,0.08,23.000000,,2013-01-25 17:02:00,
2013-01-25 11:10:00,15.0,9.0,-100.00,SSW,209,3.0,8.0,78,0.02,,,0.10,36.000000,,2013-01-25 17:10:00,
2013-01-25 11:43:00,15.0,9.0,-100.00,SSW,209,3.0,8.0,78,0.02,,,0.10,36.000000,,2013-01-25 17:43:00,
2013-01-25 11:53:00,15.0,9.0,-100.00,SSW,209,3.0,8.0,78,0.02,,,0.10,36.000000,,2013-01-25 17:53:00,
2013-01-25 12:03:00,15.0,9.0,-100.00,SSW,209,3.0,8.0,78,0.02,,,0.10,36.000000,,2013-01-25 18:03:00,
2013-01-25 12:10:00,16.0,9.0,-100.00,WSW,251,4.0,9.0,73,0.01,,,0.11,50.000000,,2013-01-25 18:10:00,
2013-01-25 12:43:00,16.0,9.0,-100.00,WSW,251,4.0,9.0,73,0.01,,,0.11,50.000000,,2013-01-25 18:43:00,
2013-01-25 12:52:00,16.0,9.0,-100.00,WSW,251,4.0,9.0,73,0.01,,,0.11,50.000000,,2013-01-25 18:52:00,
2013-01-25 13:03:00,16.0,9.0,-100.00,WSW,251,4.0,9.0,73,0.01,,,0.11,50.000000,,2013-01-25 19:03:00,
2013-01-25 13:10:00,16.0,9.0,-100.00,WNW,296,4.0,8.0,73,0.00,,,0.11,44.000000,,2013-01-25 19:10:00,
2013-01-25 13:42:00,16.0,9.0,-100.00,WNW,296,4.0,8.0,73,0.00,,,0.11,44.000000,,2013-01-25 19:42:00,
2013-01-25 13:53:00,16.0,9.0,-100.00,WNW,296,4.0,8.0,73,0.00,,,0.11,44.000000,,2013-01-25 19:53:00,
2013-01-25 14:03:00,16.0,9.0,-100.00,WNW,296,4.0,8.0,73,0.00,,,0.11,44.000000,,2013-01-25 20:03:00,
2013-01-25 14:10:00,14.0,5.0,-100.00,NNW,338,6.0,11.0,67,0.01,,,0.12,37.000000,,2013-01-25 20:10:00,
2013-01-25 14:43:00,14.0,5.0,-100.00,NNW,338,6.0,11.0,67,0.01,,,0.12,37.000000,,2013-01-25 20:43:00,
2013-01-25 14:53:00,14.0,5.0,-100.00,NNW,338,6.0,11.0,67,0.01,,,0.12,37.000000,,2013-01-25 20:53:00,
2013-01-25 15:02:00,14.0,5.0,-100.00,NNW,338,6.0,11.0,67,0.01,,,0.12,37.000000,,2013-01-25 21:02:00,
2013-01-25 15:10:00,15.0,7.0,-100.00,NW,319,5.0,11.0,71,0.00,,,0.12,36.000000,,2013-01-25 21:10:00,
2013-01-25 15:43:00,15.0,7.0,-100.00,NW,319,5.0,11.0,71,0.00,,,0.12,36.000000,,2013-01-25 21:43:00,
2013-01-25 15:52:00,15.0,7.0,-100.00,NW,319,5.0,11.0,71,0.00,,,0.12,36.000000,,2013-01-25 21:52:00,
2013-01-25 16:03:00,15.0,7.0,-100.00,NW,319,5.0,11.0,71,0.00,,,0.12,36.000000,,2013-01-25 22:03:00,
2013-01-25 16:10:00,13.0,6.0,-100.00,NW,323,4.0,12.0,72,0.00,,,0.12,14.000000,,2013-01-25 22:10:00,
2013-01-25 16:42:00,13.0,6.0,-100.00,NW,323,4.0,12.0,72,0.00,,,0.12,14.000000,,2013-01-25 22:42:00,
2013-01-25 16:53:00,13.0,6.0,-100.00,NW,323,4.0,12.0,72,0.00,,,0.12,14.000000,,2013-01-25 22:53:00,
2013-01-25 17:02:00,13.0,6.0,-100.00,NW,323,4.0,12.0,72,0.00,,,0.12,14.000000,,2013-01-25 23:02:00,
2013-01-25 17:10:00,12.0,6.0,-100.00,NW,326,5.0,10.0,77,0.00,,,0.12,4.000000,,2013-01-25 23:10:00,
2013-01-25 17:42:00,12.0,6.0,-100.00,NW,326,5.0,10.0,77,0.00,,,0.12,4.000000,,2013-01-25 23:42:00,
2013-01-25 17:53:00,12.0,6.0,-100.00,NW,326,5.0,10.0,77,0.00,,,0.12,4.000000,,2013-01-25 23:53:00,
2013-01-25 18:02:00,12.0,6.0,-100.00,NW,326,5.0,10.0,77,0.00,,,0.12,4.000000,,2013-01-26 00:02:00,
2013-01-25 18:10:00,8.0,2.0,-100.00,WNW,292,2.0,7.0,77,0.00,,,0.12,0.000000,,2013-01-26 00:10:00,
2013-01-25 18:42:00,8.0,2.0,-100.00,WNW,292,2.0,7.0,77,0.00,,,0.12,0.000000,,2013-01-26 00:42:00,
2013-01-25 18:53:00,8.0,2.0,-100.00,WNW,292,2.0,7.0,77,0.00,,,0.12,0.000000,,2013-01-26 00:53:00,
2013-01-25 19:02:00,8.0,2.0,-100.00,WNW,292,2.0,7.0,77,0.00,,,0.12,0.000000,,2013-01-26 01:02:00,
2013-01-25 19:10:00,11.0,6.0,-100.00,NW,310,4.0,8.0,80,0.00,,,0.12,0.000000,,2013-01-26 01:10:00,
2013-01-25 19:32:00,11.0,6.0,-100.00,NW,310,4.0,8.0,80,0.00,,,0.12,0.000000,,2013-01-26 01:32:00,
2013-01-25 19:42:00,11.0,6.0,-100.00,NW,310,4.0,8.0,80,0.00,,,0.12,0.000000,,2013-01-26 01:42:00,
2013-01-25 19:52:00,11.0,6.0,-100.00,NW,310,4.0,8.0,80,0.00,,,0.12,0.000000,,2013-01-26 01:52:00,
2013-01-25 20:01:00,11.0,6.0,-100.00,NW,310,4.0,8.0,80,0.00,,,0.12,0.000000,,2013-01-26 02:01:00,
2013-01-25 20:10:00,9.0,5.0,-100.00,NW,309,3.0,10.0,82,0.00,,,0.12,0.000000,,2013-01-26 02:10:00,
2013-01-25 20:42:00,9.0,5.0,-100.00,NW,309,3.0,10.0,82,0.00,,,0.12,0.000000,,2013-01-26 02:42:00,
2013-01-25 20:52:00,9.0,5.0,-100.00,NW,309,3.0,10.0,82,0.00,,,0.12,0.000000,,2013-01-26 02:52:00,
2013-01-25 21:02:00,9.0,5.0,-100.00,NW,309,3.0,10.0,82,0.00,,,0.12,0.000000,,2013-01-26 03:02:00,
2013-01-25 21:10:00,8.0,4.0,-100.00,NW,320,4.0,9.0,84,0.00,,,0.12,0.000000,,2013-01-26 03:10:00,
2013-01-25 21:32:00,8.0,4.0,-100.00,NW,320,4.0,9.0,84,0.00,,,0.12,0.000000,,2013-01-26 03:32:00,
2013-01-25 21:43:00,8.0,4.0,-100.00,NW,320,4.0,9.0,84,0.00,,,0.12,0.000000,,2013-01-26 03:43:00,
2013-01-25 21:52:00,8.0,4.0,-100.00,NW,320,4.0,9.0,84,0.00,,,0.12,0.000000,,2013-01-26 03:52:00,
2013-01-25 22:02:00,8.0,4.0,-100.00,NW,320,4.0,9.0,84,0.00,,,0.12,0.000000,,2013-01-26 04:02:00,
2013-01-25 22:10:00,7.0,2.0,-100.00,NW,310,4.0,9.0,80,0.00,,,0.11,0.000000,,2013-01-26 04:10:00,
2013-01-25 22:32:00,7.0,2.0,-100.00,NW,310,4.0,9.0,80,0.00,,,0.11,0.000000,,2013-01-26 04:32:00,
2013-01-25 22:43:00,7.0,2.0,-100.00,NW,310,4.0,9.0,80,0.00,,,0.11,0.000000,,2013-01-26 04:43:00,
2013-01-25 22:52:00,7.0,2.0,-100.00,NW,310,4.0,9.0,80,0.00,,,0.11,0.000000,,2013-01-26 04:52:00,
2013-01-25 23:03:00,7.0,2.0,-100.00,NW,310,4.0,9.0,80,0.00,,,0.11,0.000000,,2013-01-26 05:03:00,
2013-01-25 23:10:00,7.0,3.0,-100.00,NW,320,3.0,7.0,82,0.00,,,0.09,0.000000,,2013-01-26 05:10:00,
2013-01-25 23:33:00,7.0,3.0,-100.00,NW,320,3.0,7.0,82,0.00,,,0.09,0.000000,,2013-01-26 05:33:00,
2013-01-25 23:42:00,7.0,3.0,-100.00,NW,320,3.0,7.0,82,0.00,,,0.09,0.000000,,2013-01-26 05:42:00,
2013-01-25 23:52:00,7.0,3.0,-100.00,NW,320,3.0,7.0,82,0.00,,,0.09,0.000000,,2013-01-26 05:52:00,